Location: Battersea Observatory
(44.4318°N, 76.3841°W)
Time: 20:51:10
(UTC-04:00)

Tiros 1 despin weight - Pass Details

Date: 31 January 2022
Orbit: 592 x 639 km, 48.2° (Epoch: 25 May)

Event Time Altitude Azimuth Distance (km) Brightness Sun altitude
Rises 21:08:16 0° 286° (WNW) 2,914 ? -41.7°
Enters shadow 21:10:25 - 275° (W) 2,203 ? -42.1°
Reaches altitude 10° 21:11:03 10° 270° (W) 2,011 - -42.2°
Maximum altitude 21:14:28 20° 223° (SW) 1,450 - -42.8°
Drops below altitude 10° 21:17:52 10° 175° (S) 2,018 - -43.3°
Sets 21:20:41 0° 159° (SSE) 2,926 - -43.8°
